480  
ASUS43 KGLD 241359  
RWRGLD  
 
GOODLAND FORECAST AREA HOURLY WEATHER ROUNDUP  
NATIONAL WEATHER SERVICE GOODLAND KS  
800 AM MDT THU MAY 24 2018  
   
..OFFICIAL OBSERVATIONS
 
 
 
CITY SKY/WX TMP DP RH WIND PRES REMARKS
 
GOODLAND KS MOSUNNY 67 56 67 SW17 30.01R  
HILL CITY KS CLOUDY 71 59 65 S9 30.00R  
IMPERIAL NEB MOSUNNY 67 56 67 SE7 30.00R  
MCCOOK NEB MOSUNNY 67 58 72 E8 29.99S  
AKRON CO N/A 60 54 80 W12 30.07S  
BURLINGTON CO MOSUNNY 66 56 70 SW17 30.05R  
LIMON CO MOSUNNY 63 49 60 NW16 30.12R  

 
   
..UNOFFICIAL OBSERVATIONS
 
 
 
CITY SKY/WX TMP DP RH WIND PRES REMARKS
 
NORTON KS SUNNY 73 57 56 S8 29.99  
SHARON SPRINGS N/A 70 52 52 MISG N/A  
KIT CARSON CO N/A 62 54 76 MISG N/A  
YUMA CO FAIR 61 55 82 NW12 30.04R  

 
 
 
CLICK HERE TO GO TO PREVIOUS BULLETINS.

The Nexlab KS Page
The Nexlab CO Page
The Nexlab NE Page Main Text Page